When you browse on this site, cookies collect data to enhance your experience and personalize the content and advertising you see.
Visit our Privacy Policy to learn more. By continuing to use the site, you agree to this use of cookies and data.
  • In Hungary
  • List of Countries
  • For 7 days
  • Water Temperature
  • Satellite Maps
  • Weather Map
  • News
  • Weather Widgets
  • user-avatar
    Login

    Hourly Weather Kochi

    Today, 22 February, Friday

    Time Temperature Precipitation Wind Pressure Humidity
    00:00 +6°C° 0 mm 2 mps 763 mmHg 71%
    01:00 +6°C° 0 mm 2 mps 763 mmHg 71%
    02:00 +6°C° 0 mm 2 mps 763 mmHg 71%
    03:00 +6°C° 0 mm 2 mps 762 mmHg 70%
    04:00 +6°C° 0 mm 2 mps 762 mmHg 70%
    05:00 +5°C° 0 mm 2 mps 762 mmHg 71%
    06:00 +5°C° 0 mm 2 mps 762 mmHg 72%
    07:00 +8°C° 0 mm 1 mps 762 mmHg 65%
    08:00 +10°C° 0 mm 1 mps 762 mmHg 59%
    09:00 +11°C° 0 mm 0 mps 762 mmHg 49%
    10:00 +14°C° 0 mm 1 mps 761 mmHg 46%
    11:00 +16°C° 0 mm 1 mps 761 mmHg 44%
    12:00 +18°C° 0 mm 2 mps 760 mmHg 41%
    13:00 +17°C° 0 mm 2 mps 760 mmHg 47%
    14:00 +16°C° 0 mm 2 mps 759 mmHg 53%
    15:00 +14°C° 0 mm 1 mps 758 mmHg 61%
    16:00 +13°C° 0.1 mm 1 mps 758 mmHg 68%
    17:00 +12°C° 0.1 mm 1 mps 758 mmHg 75%
    18:00 +11°C° 0.1 mm 1 mps 758 mmHg 81%
    19:00 +11°C° 0.7 mm 1 mps 758 mmHg 85%
    20:00 +10°C° 0.7 mm 1 mps 758 mmHg 88%
    21:00 +10°C° 0.7 mm 1 mps 758 mmHg 91%
    22:00 +10°C° 0.6 mm 1 mps 758 mmHg 91%
    23:00 +9°C° 0.6 mm 1 mps 758 mmHg 91%

    Tomorrow, 23 February, Saturday

    Time Temperature Precipitation Wind Pressure Humidity
    00:00 +8°C° 0.6 mm 2 mps 758 mmHg 91%
    01:00 +8°C° 0.1 mm 2 mps 758 mmHg 90%
    02:00 +8°C° 0.1 mm 2 mps 757 mmHg 88%
    03:00 +7°C° 0.1 mm 2 mps 757 mmHg 87%
    04:00 +7°C° 0 mm 2 mps 757 mmHg 88%
    05:00 +7°C° 0 mm 2 mps 758 mmHg 89%
    06:00 +5°C° 0 mm 3 mps 758 mmHg 89%
    07:00 +7°C° 0 mm 3 mps 758 mmHg 85%
    08:00 +8°C° 0 mm 3 mps 759 mmHg 80%
    09:00 +9°C° 0 mm 3 mps 759 mmHg 75%
    10:00 +10°C° 0 mm 4 mps 759 mmHg 68%
    11:00 +11°C° 0 mm 4 mps 760 mmHg 60%
    12:00 +13°C° 0 mm 4 mps 760 mmHg 53%
    13:00 +13°C° 0 mm 4 mps 760 mmHg 52%
    14:00 +13°C° 0 mm 4 mps 760 mmHg 50%
    15:00 +13°C° 0 mm 4 mps 759 mmHg 49%
    16:00 +11°C° 0 mm 4 mps 760 mmHg 52%
    17:00 +8°C° 0 mm 4 mps 761 mmHg 56%
    18:00 +7°C° 0 mm 3 mps 761 mmHg 60%
    19:00 +7°C° 0 mm 3 mps 762 mmHg 64%
    20:00 +5°C° 0 mm 3 mps 762 mmHg 68%
    21:00 +4°C° 0 mm 3 mps 763 mmHg 72%
    22:00 +5°C° 0 mm 2 mps 763 mmHg 73%
    23:00 +4°C° 0 mm 2 mps 763 mmHg 75%

    Day after tomorrow, 24 February, Sunday

    Time Temperature Precipitation Wind Pressure Humidity
    00:00 +4°C° 0 mm 2 mps 764 mmHg 76%
    01:00 +4°C° 0 mm 2 mps 764 mmHg 75%
    02:00 +4°C° 0 mm 2 mps 764 mmHg 74%
    03:00 +4°C° 0 mm 2 mps 764 mmHg 73%
    04:00 +4°C° 0 mm 2 mps 764 mmHg 73%
    05:00 +4°C° 0 mm 2 mps 764 mmHg 73%
    06:00 +4°C° 0 mm 2 mps 764 mmHg 73%
    07:00 +7°C° 0 mm 1 mps 764 mmHg 65%
    08:00 +9°C° 0 mm 1 mps 764 mmHg 56%
    09:00 +11°C° 0 mm 0 mps 764 mmHg 48%
    10:00 +13°C° 0 mm 1 mps 764 mmHg 47%
    11:00 +14°C° 0 mm 2 mps 764 mmHg 46%
    12:00 +16°C° 0 mm 2 mps 764 mmHg 45%
    13:00 +16°C° 0 mm 2 mps 763 mmHg 47%
    14:00 +16°C° 0 mm 2 mps 763 mmHg 50%
    15:00 +15°C° 0 mm 2 mps 762 mmHg 53%
    16:00 +13°C° 0 mm 2 mps 762 mmHg 62%
    17:00 +11°C° 0 mm 1 mps 762 mmHg 72%
    18:00 +9°C° 0 mm 1 mps 762 mmHg 82%
    19:00 +8°C° 0 mm 1 mps 762 mmHg 85%
    20:00 +8°C° 0 mm 1 mps 762 mmHg 89%
    21:00 +7°C° 0 mm 1 mps 762 mmHg 92%
    22:00 +7°C° 0 mm 1 mps 762 mmHg 92%
    23:00 +7°C° 0 mm 1 mps 762 mmHg 92%

    25 February, Monday

    Time Temperature Precipitation Wind Pressure Humidity
    00:00 +7°C° 0 mm 1 mps 762 mmHg 93%
    01:00 +7°C° 0 mm 1 mps 762 mmHg 91%
    02:00 +7°C° 0 mm 1 mps 762 mmHg 90%
    03:00 +6°C° 0 mm 2 mps 761 mmHg 89%
    04:00 +6°C° 0 mm 2 mps 761 mmHg 88%
    05:00 +7°C° 0 mm 1 mps 761 mmHg 86%
    06:00 +7°C° 0 mm 1 mps 761 mmHg 85%
    07:00 +9°C° 0 mm 1 mps 761 mmHg 79%
    08:00 +11°C° 0 mm 1 mps 761 mmHg 73%
    09:00 +12°C° 0 mm 0 mps 761 mmHg 67%
    10:00 +15°C° 0 mm 1 mps 761 mmHg 63%
    11:00 +18°C° 0 mm 1 mps 761 mmHg 58%
    12:00 +19°C° 0 mm 1 mps 760 mmHg 53%
    13:00 +19°C° 0 mm 1 mps 760 mmHg 53%
    14:00 +19°C° 0 mm 1 mps 759 mmHg 53%
    15:00 +18°C° 0 mm 2 mps 759 mmHg 54%
    16:00 +15°C° 0 mm 2 mps 759 mmHg 61%
    17:00 +13°C° 0 mm 1 mps 759 mmHg 68%
    18:00 +11°C° 0 mm 1 mps 759 mmHg 75%
    19:00 +9°C° 0 mm 2 mps 760 mmHg 76%
    20:00 +9°C° 0 mm 2 mps 760 mmHg 78%
    21:00 +8°C° 0 mm 2 mps 761 mmHg 79%
    22:00 +8°C° 0 mm 2 mps 761 mmHg 81%
    23:00 +7°C° 0 mm 2 mps 761 mmHg 82%

    26 February, Tuesday

    Time Temperature Precipitation Wind Pressure Humidity
    00:00 +6°C° 0 mm 2 mps 761 mmHg 83%
    01:00 +5°C° 0 mm 3 mps 761 mmHg 84%
    02:00 +5°C° 0 mm 3 mps 761 mmHg 85%
    03:00 +5°C° 0 mm 3 mps 761 mmHg 85%
    04:00 +4°C° 0 mm 3 mps 761 mmHg 87%
    05:00 +4°C° 0 mm 3 mps 762 mmHg 89%
    06:00 +4°C° 0 mm 3 mps 762 mmHg 90%
    07:00 +7°C° 0 mm 3 mps 762 mmHg 84%
    08:00 +8°C° 0 mm 2 mps 763 mmHg 79%
    09:00 +10°C° 0 mm 2 mps 763 mmHg 73%
    10:00 +13°C° 0 mm 2 mps 763 mmHg 64%
    11:00 +14°C° 0 mm 1 mps 763 mmHg 56%
    12:00 +16°C° 0 mm 1 mps 763 mmHg 47%
    13:00 +16°C° 0 mm 2 mps 762 mmHg 45%
    14:00 +16°C° 0 mm 2 mps 762 mmHg 43%
    15:00 +16°C° 0 mm 2 mps 762 mmHg 42%
    16:00 +14°C° 0 mm 2 mps 762 mmHg 50%
    17:00 +10°C° 0 mm 2 mps 762 mmHg 59%
    18:00 +8°C° 0 mm 2 mps 763 mmHg 68%
    19:00 +8°C° 0 mm 2 mps 763 mmHg 70%
    20:00 +7°C° 0 mm 2 mps 764 mmHg 72%
    21:00 +7°C° 0 mm 1 mps 764 mmHg 75%
    22:00 +6°C° 0 mm 2 mps 764 mmHg 74%
    23:00 +6°C° 0 mm 2 mps 764 mmHg 73%

    27 February, Wednesday

    Time Temperature Precipitation Wind Pressure Humidity
    00:00 +6°C° 0 mm 2 mps 764 mmHg 72%
    01:00 +6°C° 0 mm 2 mps 764 mmHg 71%
    02:00 +6°C° 0 mm 2 mps 764 mmHg 70%
    03:00 +7°C° 0 mm 2 mps 764 mmHg 70%
    04:00 +6°C° 0 mm 2 mps 764 mmHg 70%
    05:00 +6°C° 0 mm 2 mps 764 mmHg 70%
    06:00 +6°C° 0 mm 2 mps 764 mmHg 70%
    07:00 +8°C° 0 mm 2 mps 764 mmHg 64%
    08:00 +11°C° 0 mm 1 mps 765 mmHg 58%
    09:00 +12°C° 0 mm 1 mps 765 mmHg 52%
    10:00 +14°C° 0 mm 1 mps 765 mmHg 50%
    11:00 +16°C° 0 mm 1 mps 764 mmHg 48%
    12:00 +18°C° 0 mm 2 mps 764 mmHg 45%
    13:00 +17°C° 0 mm 2 mps 763 mmHg 49%
    14:00 +16°C° 0 mm 2 mps 763 mmHg 53%
    15:00 +16°C° 0 mm 3 mps 762 mmHg 57%
    16:00 +14°C° 0 mm 2 mps 762 mmHg 65%
    17:00 +13°C° 0 mm 2 mps 762 mmHg 72%
    18:00 +10°C° 0 mm 2 mps 762 mmHg 79%
    19:00 +10°C° 0 mm 2 mps 762 mmHg 82%
    20:00 +10°C° 0 mm 1 mps 763 mmHg 85%
    21:00 +10°C° 0 mm 1 mps 763 mmHg 89%
    22:00 +10°C° 0 mm 1 mps 762 mmHg 89%
    23:00 +10°C° 0 mm 1 mps 762 mmHg 89%
    Show more